This demonstration page uses our WeatherBlox Daily Observations layout. Learn more.

Left ArrowRight Arrow

39.01783, -85.05884

Hourly Observations for January 4, 2021

Temp ( °F °C ) Dew Point ( °F °C ) Humidity (%) Winds ( mph kmh ) Pressure ( in mb ) Visibility ( mi km ) Precip ( " mm )
12:52 am 00:52 Cloudy 34 1.1 29 -1.7 82 82 Calm 30.05 1018 10 16 0.00 0.00
1:52 am 01:52 Cloudy 34 1.1 30 -1.1 85 85 Calm 30.06 1018 10 16 0.00 0.00
2:52 am 02:52 Cloudy 34 1.1 30 -1.1 85 85 Calm 30.06 1018 10 16 0.00 0.00
3:52 am 03:52 Cloudy with Mist and Fog 33 0.6 30 -1.1 89 89 SW 5 7 30.07 1018 5 8 0.00 0.00
4:52 am 04:52 Mostly Cloudy 33 0.6 31 -0.6 92 92 Calm 30.08 1019 8 13 0.00 0.00
5:14 am 05:14 Mostly Cloudy 32 0 29 -1.7 88 88 Calm 30.11 1020 8 13 0.00 0.00
5:38 am 05:38 Cloudy 33 0.6 30 -1.1 89 89 Calm 30.10 1019 7 11 0.00 0.00
5:52 am 05:52 Cloudy 32 0 30 -1.1 92 92 Calm 30.08 1019 8 13 0.00 0.00
6:52 am 06:52 Cloudy 33 0.6 30 -1.1 89 89 Calm 30.08 1019 8 13 0.00 0.00
7:52 am 07:52 Cloudy 33 0.6 30 -1.1 89 89 Calm 30.08 1019 7 11 0.00 0.00
8:52 am 08:52 Cloudy with Mist and Fog 34 1.1 31 -0.6 89 89 SE 5 7 30.08 1019 6 10 0.00 0.00
9:52 am 09:52 Cloudy with Mist and Fog 36 2.2 32 0 86 86 SSE 3 6 30.09 1019 6 10 0.00 0.00
10:52 am 10:52 Cloudy 37 2.8 32 0 82 82 S 5 7 30.08 1019 7 11 0.00 0.00
11:52 am 11:52 Cloudy 37 2.8 31 -0.6 79 79 S 6 9 30.05 1018 9 14 0.00 0.00
12:52 pm 12:52 Cloudy 39 3.9 31 -0.6 73 73 S 7 11 30.01 1016 10 16 0.00 0.00
1:52 pm 13:52 Mostly Cloudy 41 5 32 0 70 70 VRB 5 7 29.99 1016 10 16 0.00 0.00
2:16 pm 14:16 Partly Cloudy 43 6.1 31 -0.6 63 63 VRB 5 7 29.99 1016 10 16 0.00 0.00
2:52 pm 14:52 Mostly Sunny 43 6.1 31 -0.6 63 63 VRB 3 6 29.98 1015 10 16 0.00 0.00
3:52 pm 15:52 Mostly Sunny 44 6.7 31 -0.6 60 60 S 6 9 29.98 1015 10 16 0.00 0.00
4:52 pm 16:52 Mostly Sunny 43 6.1 30 -1.1 60 60 SSW 6 9 29.97 1015 10 16 0.00 0.00
5:52 pm 17:52 Mostly Clear 40 4.4 31 -0.6 70 70 S 5 7 29.97 1015 10 16 0.00 0.00
6:52 pm 18:52 Partly Cloudy 39 3.9 31 -0.6 73 73 Calm 29.96 1015 10 16 0.00 0.00
7:52 pm 19:52 Mostly Cloudy 37 2.8 30 -1.1 76 76 Calm 29.96 1015 10 16 0.00 0.00
8:52 pm 20:52 Cloudy 35 1.7 29 -1.7 78 78 Calm 29.95 1014 10 16 0.00 0.00
9:52 pm 21:52 Cloudy 35 1.7 31 -0.6 85 85 Calm 29.93 1014 8 13 0.00 0.00
10:52 pm 22:52 Mostly Cloudy 37 2.8 30 -1.1 76 76 Calm 29.92 1013 8 13 0.00 0.00
11:52 pm 23:52 Cloudy 35 1.7 31 -0.6 85 85 Calm 29.91 1013 8 13 0.00 0.00

Powered by AerisWeather